Tracking 17149 objects as of 22-May-2015
HD Live streaming from Space Station

GLOBALSTAR M044

Track GLOBALSTAR M044 now!
10-day predictions
GLOBALSTAR M044 is classified as:


NORAD ID: 25678
Int'l Code: 1999-019C
Perigee: 1,727.4 km
Apogee: 1,737.2 km
Inclination: 52.0 °
Period: 121.0 minutes
Semi major axis: 8103 km
RCS: 2.4818 m2 (large)
Launch date: April 15, 1999
Source: Globalstar (GLOB)
Your satellite tracking list
Your tracking list is empty





NASA's NSSDC Master Catalog

Two Line Element Set (TLE):
1 25678U 99019C   15141.20154490 -.00000071  00000-0  17188-3 0  9990
2 25678 051.9973 075.4475 0006040 135.6134 006.4123 11.90164357733117

Source of the keplerian elements: AFSPC

N2YO: 442